Вернуться в каталог

ATLAS 5 CENTAUR DEB

АктивенHEO
NORAD 49342·DEBRIS·🇺🇸 United States

Запущен Oct 17, 2018 с Cape Canaveral Space Force Station

Loading…

Ближайшие Пролёты (ближайшие 24 часа)

TLE

СвежийSource: Space-Track

Эпоха: Sep 6, 2026, 09:46 UTC

1 49342U 18079ET  26249.40722669 -.00000186  00000-0  00000-0 0  9992
2 49342  13.4378  18.1464 4763823 352.4093   2.2607  1.84615685 33864

Отслеживайте ATLAS 5 CENTAUR DEB в реальном времени с AllMySat

Download on the App Store